Starlink 11481

operational
NORAD ID: 62230 Int'l Des: 2024-231 Owner: SPXS Country: US Constellation: starlink
LEOCIRCULAR

关于 Starlink 11481

正在加载描述...

实时位置

正在加载3D地球...

即将过境

高度历史

Altitude vs Time

uPlot chart will show altitude changes over time

两行轨道根数

1 62230U 24231N 26036.64440129 .00473647 00000-0 36473-2 0 9998
2 62230 53.1568 259.5829 0001525 141.4123 218.7004 15.70028058 68374
Epoch: Feb 5, 2026 • Age: 9 hours

当前状态

高度 373.6 km
速度 7.68 km/s
星下点 -44.21°S, 69.52°E
发射日期 Dec 5, 2024
运行时间 1.1 years
类型 internet

技术详情

分类 Payload
质量 960.00 kg
干质量 910.00 kg
总质量 960.00 kg
长度 0.30 m
直径 4.10 m
跨度 29.00 m
形状 Box + pan
制造商 SPXS
平台类型 Starlink V2MD
阶段状态 In Orbit
所有者/国家 SPXS/US

大型星座

Loading constellations...